EZY78CA EGKK-LGKR

Flight info

Callsign EZY78CA
Flight time N/A
Altitude 37000
Route ODVIK Y311 DVR UL9 KONAN DCT KOK DCT RITAX DCT BANUX DCT BABEG DCT KUMOM DCT EVAXI DCT DARZA DCT UNIPA DCT VAKSU DCT RODON DCT LIMJA N732 PITAS
Aircraft A320/M-SDE3FGHIRWY/LB1

Departure

Time N/A
Airport London Gatwick Airport (EGKK)

Arrival

Time 2026-05-05 16:57
Airport Corfu Ioannis Kapodistrias International Airport (LGKR)
Time Latitude Longitude Altitude Speed Heading
2026-05-05 15:31 47.79532 11.81707 36773 ft 460 kts 126°
2026-05-05 15:32 47.77826 11.85738 36776 ft 460 kts 126°
2026-05-05 15:32 47.74422 11.93753 36768 ft 461 kts 126°
2026-05-05 15:33 47.70991 12.01795 36766 ft 461 kts 126°
2026-05-05 15:33 47.67532 12.09866 36766 ft 461 kts 126°
2026-05-05 15:34 47.64089 12.17886 36756 ft 462 kts 126°
2026-05-05 15:34 47.60653 12.25886 36759 ft 462 kts 126°
2026-05-05 15:35 47.57188 12.33907 36762 ft 463 kts 126°
2026-05-05 15:35 47.53131 12.41161 36770 ft 456 kts 139°
2026-05-05 15:36 47.48661 12.47837 36768 ft 457 kts 138°
2026-05-05 15:36 47.44205 12.54497 36778 ft 458 kts 139°
2026-05-05 15:37 47.39719 12.61185 36791 ft 460 kts 139°
2026-05-05 15:37 47.35213 12.67881 36807 ft 460 kts 138°
2026-05-05 15:38 47.30699 12.74581 36822 ft 461 kts 138°
2026-05-05 15:38 47.26181 12.81266 36827 ft 461 kts 139°
2026-05-05 15:39 47.21668 12.87920 36843 ft 461 kts 138°
2026-05-05 15:39 47.17137 12.94592 36856 ft 461 kts 138°
2026-05-05 15:40 47.12605 13.01248 36872 ft 462 kts 138°
2026-05-05 15:40 47.08057 13.07906 36880 ft 462 kts 138°
2026-05-05 15:41 47.03514 13.14545 36893 ft 462 kts 138°
2026-05-05 15:41 46.98962 13.21177 36919 ft 462 kts 139°
2026-05-05 15:42 46.94397 13.27808 36923 ft 461 kts 139°
2026-05-05 15:42 46.89835 13.34418 36932 ft 461 kts 139°
2026-05-05 15:43 46.85307 13.40968 36937 ft 461 kts 139°
2026-05-05 15:43 46.80828 13.47424 36941 ft 462 kts 139°
2026-05-05 15:44 46.76060 13.53913 36939 ft 459 kts 144°
2026-05-05 15:44 46.71111 13.59819 36945 ft 460 kts 144°
2026-05-05 15:45 46.66179 13.65681 36947 ft 460 kts 144°
2026-05-05 15:45 46.61211 13.71581 36956 ft 461 kts 144°
2026-05-05 15:46 46.56244 13.77479 36963 ft 462 kts 144°
2026-05-05 15:46 46.51268 13.83364 36973 ft 462 kts 144°
2026-05-05 15:47 46.46293 13.89232 36981 ft 462 kts 144°
2026-05-05 15:47 46.41303 13.95099 36989 ft 462 kts 144°
2026-05-05 15:48 46.36318 14.00966 36996 ft 462 kts 144°
2026-05-05 15:48 46.31325 14.06829 37004 ft 462 kts 144°
2026-05-05 15:49 46.26285 14.12717 37006 ft 463 kts 144°
2026-05-05 15:49 46.21272 14.18550 37007 ft 463 kts 144°
2026-05-05 15:50 46.16243 14.24389 37004 ft 464 kts 144°
2026-05-05 15:50 46.11211 14.30229 37007 ft 464 kts 144°
2026-05-05 15:51 46.06193 14.36051 37006 ft 465 kts 144°
2026-05-05 15:51 46.01154 14.41872 37010 ft 465 kts 144°
2026-05-05 15:52 45.96117 14.47660 37010 ft 465 kts 144°
2026-05-05 15:52 45.91054 14.53470 37012 ft 465 kts 144°
2026-05-05 15:53 45.86000 14.59273 37011 ft 465 kts 144°
2026-05-05 15:53 45.80957 14.65052 37008 ft 466 kts 144°
2026-05-05 15:54 45.75885 14.70830 37004 ft 466 kts 145°
2026-05-05 15:54 45.70825 14.76577 36997 ft 466 kts 145°
2026-05-05 15:55 45.65743 14.82348 36997 ft 466 kts 144°
2026-05-05 15:55 45.60806 14.87963 37002 ft 456 kts 144°
2026-05-05 15:56 45.55802 14.93628 37000 ft 455 kts 145°
2026-05-05 15:56 45.50829 14.99226 36996 ft 455 kts 145°
2026-05-05 15:57 45.45807 15.04705 37001 ft 455 kts 147°
2026-05-05 15:57 45.40698 15.09950 36994 ft 454 kts 148°
2026-05-05 15:58 45.35552 15.15170 36995 ft 454 kts 148°
2026-05-05 15:58 45.30424 15.20428 36983 ft 455 kts 147°
2026-05-05 15:59 45.25301 15.25713 36984 ft 455 kts 147°
2026-05-05 15:59 45.20202 15.30981 36978 ft 456 kts 147°
2026-05-05 16:00 45.16025 15.35264 36982 ft 456 kts 147°
2026-05-05 16:00 45.10817 15.40583 36999 ft 467 kts 147°
2026-05-05 16:01 45.05532 15.45975 37006 ft 470 kts 147°
2026-05-05 16:01 45.00250 15.51357 37013 ft 471 kts 147°
2026-05-05 16:02 44.94934 15.56758 37016 ft 471 kts 147°
2026-05-05 16:02 44.89610 15.62154 37018 ft 471 kts 148°
2026-05-05 16:03 44.84286 15.67534 37021 ft 471 kts 148°
2026-05-05 16:03 44.78979 15.72888 37021 ft 471 kts 148°
2026-05-05 16:04 44.73599 15.78296 37021 ft 472 kts 148°
2026-05-05 16:04 44.68256 15.83662 37025 ft 472 kts 148°
2026-05-05 16:05 44.62907 15.89025 37022 ft 472 kts 148°
2026-05-05 16:05 44.57573 15.94350 37028 ft 473 kts 148°
2026-05-05 16:06 44.52204 15.99705 37039 ft 473 kts 148°
2026-05-05 16:06 44.46844 16.05047 37041 ft 474 kts 148°
2026-05-05 16:07 44.41476 16.10391 37040 ft 474 kts 148°
2026-05-05 16:07 44.36086 16.15729 37055 ft 474 kts 148°
2026-05-05 16:08 44.30723 16.21025 37056 ft 474 kts 148°
2026-05-05 16:08 44.25330 16.26340 37056 ft 474 kts 148°
2026-05-05 16:09 44.19988 16.31584 37039 ft 476 kts 148°
2026-05-05 16:09 44.14541 16.36931 37037 ft 480 kts 148°
2026-05-05 16:10 44.09097 16.42263 37046 ft 482 kts 148°
2026-05-05 16:10 44.03596 16.47638 37060 ft 484 kts 148°
2026-05-05 16:11 43.98144 16.53151 37067 ft 486 kts 146°
2026-05-05 16:12 43.87448 16.64635 37079 ft 488 kts 145°
2026-05-05 16:13 43.73904 16.78804 37080 ft 489 kts 146°
2026-05-05 16:13 43.68491 16.84440 37080 ft 489 kts 146°
2026-05-05 16:14 43.57624 16.95767 37073 ft 490 kts 146°
2026-05-05 16:15 43.46740 17.07021 37069 ft 490 kts 146°
2026-05-05 16:16 43.35819 17.18284 37072 ft 491 kts 146°
2026-05-05 16:17 43.27619 17.26689 37072 ft 491 kts 146°
2026-05-05 16:18 43.19394 17.35100 37072 ft 492 kts 146°
2026-05-05 16:19 43.11162 17.43506 37076 ft 492 kts 146°
2026-05-05 16:19 43.02910 17.51891 37084 ft 493 kts 146°
2026-05-05 16:20 42.91908 17.63016 37089 ft 493 kts 146°
2026-05-05 16:22 42.78131 17.76874 37085 ft 494 kts 146°
2026-05-05 16:23 42.67057 17.87969 37103 ft 495 kts 146°
2026-05-05 16:23 42.58724 17.96274 37096 ft 496 kts 146°
2026-05-05 16:24 42.53190 18.01778 37115 ft 496 kts 146°
2026-05-05 16:25 42.44794 18.10119 37111 ft 497 kts 146°
2026-05-05 16:25 42.36422 18.18388 37114 ft 497 kts 146°
2026-05-05 16:26 42.25243 18.29403 37098 ft 498 kts 146°
2026-05-05 16:27 42.19646 18.34895 37096 ft 499 kts 146°
2026-05-05 16:27 42.14031 18.40390 37095 ft 499 kts 146°
2026-05-05 16:28 42.08436 18.45850 37099 ft 500 kts 146°
2026-05-05 16:28 42.02801 18.51339 37084 ft 500 kts 146°
2026-05-05 16:29 41.97233 18.56881 37089 ft 501 kts 144°
2026-05-05 16:29 41.91709 18.62692 37094 ft 502 kts 143°
2026-05-05 16:30 41.86227 18.68497 37090 ft 502 kts 143°
2026-05-05 16:30 41.80749 18.74209 37094 ft 503 kts 144°
2026-05-05 16:31 41.75193 18.79916 37098 ft 503 kts 144°
2026-05-05 16:31 41.69642 18.85619 37098 ft 503 kts 144°
2026-05-05 16:32 41.64083 18.91325 37097 ft 504 kts 144°
2026-05-05 16:32 41.58539 18.97011 37103 ft 504 kts 144°
2026-05-05 16:33 41.52972 19.02718 37102 ft 504 kts 144°
2026-05-05 16:33 41.47368 19.08336 37107 ft 503 kts 149°
2026-05-05 16:34 41.41109 19.12336 37105 ft 498 kts 162°
2026-05-05 16:34 41.34627 19.15508 37101 ft 499 kts 163°
2026-05-05 16:35 41.28100 19.18688 37095 ft 500 kts 163°
2026-05-05 16:35 41.21564 19.21856 37097 ft 501 kts 163°
2026-05-05 16:36 41.15013 19.25031 37096 ft 502 kts 162°
2026-05-05 16:36 41.08490 19.28193 37100 ft 502 kts 162°
2026-05-05 16:37 41.03022 19.30834 37099 ft 502 kts 162°
2026-05-05 16:37 40.96451 19.34008 37107 ft 503 kts 162°
2026-05-05 16:38 40.89878 19.37183 37100 ft 503 kts 162°
2026-05-05 16:38 40.83290 19.40362 37106 ft 503 kts 162°
2026-05-05 16:39 40.76705 19.43518 37110 ft 504 kts 162°
2026-05-05 16:39 40.70117 19.46666 37107 ft 504 kts 162°
2026-05-05 16:40 40.63528 19.49816 37105 ft 504 kts 162°
2026-05-05 16:40 40.56951 19.52940 37112 ft 504 kts 162°
2026-05-05 16:41 40.50238 19.54925 36534 ft 489 kts 175°
2026-05-05 16:41 40.46867 19.55517 35812 ft 489 kts 176°
2026-05-05 16:41 40.43495 19.56078 35031 ft 490 kts 176°
2026-05-05 16:42 40.40095 19.56627 34224 ft 492 kts 177°
2026-05-05 16:42 40.36695 19.57179 33282 ft 495 kts 177°
2026-05-05 16:42 40.33256 19.57747 32318 ft 499 kts 176°
2026-05-05 16:42 40.29812 19.58327 31381 ft 501 kts 176°
2026-05-05 16:43 40.26391 19.58909 30456 ft 503 kts 176°
2026-05-05 16:43 40.22906 19.59500 29438 ft 505 kts 176°
2026-05-05 16:43 40.19415 19.60090 28354 ft 507 kts 176°
2026-05-05 16:43 40.15913 19.60679 27166 ft 508 kts 175°
2026-05-05 16:44 40.12397 19.61265 26035 ft 509 kts 175°
2026-05-05 16:44 40.08877 19.61850 24910 ft 510 kts 175°
2026-05-05 16:44 40.05395 19.62427 24079 ft 505 kts 175°
2026-05-05 16:44 40.01910 19.63008 23225 ft 498 kts 174°
2026-05-05 16:45 39.98515 19.63575 22365 ft 491 kts 174°
2026-05-05 16:45 39.95155 19.64141 21550 ft 485 kts 174°
2026-05-05 16:45 39.91825 19.64704 20764 ft 479 kts 174°
2026-05-05 16:45 39.88540 19.65256 20030 ft 474 kts 174°
2026-05-05 16:46 39.85288 19.65801 19311 ft 468 kts 174°
2026-05-05 16:46 39.82077 19.66334 18612 ft 463 kts 174°
2026-05-05 16:46 39.78886 19.66860 17874 ft 458 kts 174°
2026-05-05 16:46 39.75757 19.67375 17406 ft 442 kts 174°
2026-05-05 16:47 39.72840 19.67858 17147 ft 411 kts 174°
2026-05-05 16:47 39.70103 19.68314 17005 ft 382 kts 174°
2026-05-05 16:47 39.67534 19.68745 16337 ft 371 kts 174°
2026-05-05 16:47 39.64936 19.69176 14968 ft 382 kts 173°
2026-05-05 16:48 39.62264 19.69616 13484 ft 392 kts 173°
2026-05-05 16:48 39.59537 19.70067 11789 ft 400 kts 173°
2026-05-05 16:48 39.56757 19.70527 10239 ft 402 kts 173°
2026-05-05 16:48 39.53968 19.70988 8835 ft 394 kts 172°
2026-05-05 16:49 39.51315 19.71424 7539 ft 384 kts 172°
2026-05-05 16:49 39.48690 19.71855 6270 ft 374 kts 172°
2026-05-05 16:49 39.46137 19.72274 5018 ft 363 kts 172°
2026-05-05 16:49 39.43722 19.72682 4434 ft 336 kts 170°
2026-05-05 16:50 39.41657 19.73693 4201 ft 304 kts 144°
2026-05-05 16:50 39.40292 19.75633 4072 ft 286 kts 117°
2026-05-05 16:50 39.39800 19.78026 3992 ft 268 kts 90°
2026-05-05 16:50 39.39824 19.80342 3995 ft 249 kts 88°
2026-05-05 16:51 39.39854 19.82501 3996 ft 232 kts 88°
2026-05-05 16:51 39.39882 19.84531 4001 ft 226 kts 88°
2026-05-05 16:51 39.39909 19.86556 3999 ft 225 kts 87°
2026-05-05 16:51 39.40149 19.88544 3919 ft 224 kts 72°
2026-05-05 16:52 39.40599 19.90470 3823 ft 224 kts 72°
2026-05-05 16:52 39.41039 19.92398 3713 ft 224 kts 72°
2026-05-05 16:52 39.41476 19.94328 3603 ft 223 kts 73°
2026-05-05 16:52 39.42031 19.96131 3512 ft 212 kts 51°
2026-05-05 16:53 39.43203 19.97140 3386 ft 203 kts 11°
2026-05-05 16:53 39.44588 19.96986 3066 ft 205 kts 343°
2026-05-05 16:53 39.45965 19.96464 2770 ft 208 kts 342°
2026-05-05 16:53 39.47364 19.95932 2466 ft 211 kts 342°
2026-05-05 16:54 39.48754 19.95406 2165 ft 204 kts 342°
2026-05-05 16:54 39.50083 19.94905 1890 ft 195 kts 342°
2026-05-05 16:54 39.51337 19.94437 1640 ft 180 kts 342°
2026-05-05 16:54 39.52461 19.94019 1421 ft 156 kts 341°
2026-05-05 16:55 39.53447 19.93650 1205 ft 142 kts 341°
2026-05-05 16:55 39.54371 19.93301 1021 ft 136 kts 340°
2026-05-05 16:55 39.55274 19.92962 839 ft 135 kts 341°
2026-05-05 16:55 39.56175 19.92624 664 ft 135 kts 341°
2026-05-05 16:56 39.57078 19.92283 479 ft 135 kts 341°
2026-05-05 16:56 39.57968 19.91916 289 ft 136 kts 338°
2026-05-05 16:56 39.58877 19.91584 106 ft 135 kts 343°
2026-05-05 16:56 39.59782 19.91328 10 ft 126 kts 347°
2026-05-05 16:57 39.60458 19.91144 6 ft 60 kts 350°
2026-05-05 16:57 39.60655 19.91096 5 ft 20 kts 348°
2026-05-05 16:57 39.60796 19.91057 6 ft 22 kts 348°
2026-05-05 16:57 39.60952 19.91018 5 ft 24 kts 348°
2026-05-05 16:58 39.61042 19.91048 6 ft 4 kts 59°
2026-05-05 16:58 39.61050 19.91068 7 ft 3 kts 65°
2026-05-05 16:58 39.61053 19.91078 7 ft 2 kts 66°
2026-05-05 16:58 39.61056 19.91097 7 ft 4 kts 91°
2026-05-05 16:59 39.61008 19.91135 8 ft 7 kts 167°
2026-05-05 16:59 39.60963 19.91148 9 ft 6 kts 167°
2026-05-05 16:59 39.60923 19.91158 8 ft 6 kts 169°
2026-05-05 16:59 39.60885 19.91168 8 ft 5 kts 169°
2026-05-05 17:00 39.60851 19.91177 18 ft 5 kts 168°
2026-05-05 17:00 39.60819 19.91185 7 ft 5 kts 168°
2026-05-05 17:00 39.60789 19.91193 7 ft 4 kts 168°
2026-05-05 17:00 39.60762 19.91201 7 ft 4 kts 168°
2026-05-05 17:01 39.60736 19.91208 9 ft 5 kts 167°
2026-05-05 17:01 39.60689 19.91221 8 ft 9 kts 168°
2026-05-05 17:01 39.60641 19.91265 8 ft 9 kts 109°
2026-05-05 17:01 39.60648 19.91353 8 ft 9 kts 77°
2026-05-05 17:02 39.60654 19.91384 9 ft 0 kts 77°